This is the latest recevied weather packets stored in our database for station/object DB0SVX. If no packets are shown the sender has not sent any weather packets the latest 10 day(s).
| Time | Temp. | Humidity | Pressure | Rain* | Wind** | Luminosity | Snow |
|---|---|---|---|---|---|---|---|
| 1777634720 | 26.11° C | 18% | 1023.4 hPa | 0 mm | - | - | - |
| 1777633820 | 26.11° C | 18% | 1023.4 hPa | 0 mm | - | - | - |
| 1777632920 | 25.56° C | 18% | 1023.5 hPa | 0 mm | - | - | - |
| 1777632020 | 24.44° C | 20% | 1023.5 hPa | 0 mm | - | - | - |
| 1777631120 | 24.44° C | 21% | 1023.7 hPa | 0 mm | - | - | - |
| 1777630220 | 22.78° C | 22% | 1023.7 hPa | 0 mm | - | - | - |
| 1777629320 | 22.22° C | 23% | 1023.7 hPa | 0 mm | - | - | - |
| 1777628420 | 21.11° C | 25% | 1023.9 hPa | 0 mm | - | - | - |
| 1777627520 | 20.56° C | 25% | 1023.9 hPa | 0 mm | - | - | - |
| 1777626620 | 20.56° C | 26% | 1024 hPa | 0 mm | - | - | - |
| 1777625720 | 20° C | 27% | 1024 hPa | 0 mm | - | - | - |
| 1777624820 | 19.44° C | 27% | 1024 hPa | 0 mm | - | - | - |
| 1777623920 | 18.89° C | 30% | 1024 hPa | 0 mm | - | - | - |
| 1777623021 | 16.11° C | 34% | 1024 hPa | 0 mm | - | - | - |
| 1777622120 | 11.11° C | 43% | 1023.9 hPa | 0 mm | - | - | - |
| 1777621220 | 8.33° C | 43% | 1023.7 hPa | 0 mm | - | - | - |
| 1777620320 | 7.78° C | 44% | 1023.9 hPa | 0 mm | - | - | - |
| 1777619420 | 7.22° C | 45% | 1023.5 hPa | 0 mm | - | - | - |
| 1777618520 | 6.67° C | 46% | 1023.7 hPa | 0 mm | - | - | - |
| 1777617620 | 6.11° C | 47% | 1023.5 hPa | 0 mm | - | - | - |
| 1777616720 | 5.56° C | 48% | 1023.5 hPa | 0 mm | - | - | - |
| 1777615820 | 4.44° C | 49% | 1023.5 hPa | 0 mm | - | - | - |
| 1777614920 | 3.89° C | 49% | 1023.5 hPa | 0 mm | - | - | - |
| 1777614020 | 3.89° C | 50% | 1023 hPa | 0 mm | - | - | - |
| 1777613120 | 2.78° C | 52% | 1023.2 hPa | 0 mm | - | - | - |
* Rain latest hour (hover to see other rain measurements)
** Current wind speed in m/s (hover to see current wind gust speed)